• In Belgien
  • Länderverzeichnis
  • Für 7 Tage
  • Wassertemperatur
  • Satellitenkarten
  • Wetterkarte
  • Widgets
  • user-avatar
    Anmelden

    Stündliche Wetter Ans

    Heute, 28 Mai, Montag

    Zeit Temperatur Niederschläge Wind Luftdruck Luftfeuchtigkeit
    00:00 +19°C° 0 mm 1 m/S 748 mmHg 88%
    01:00 +18°C° 0 mm 1 m/S 748 mmHg 88%
    02:00 +18°C° 0 mm 1 m/S 748 mmHg 87%
    03:00 +16°C° 0 mm 0 m/S 748 mmHg 87%
    04:00 +19°C° 0 mm 1 m/S 748 mmHg 85%
    05:00 +20°C° 0 mm 1 m/S 748 mmHg 83%
    06:00 +21°C° 0 mm 1 m/S 749 mmHg 81%
    07:00 +23°C° 0 mm 1 m/S 749 mmHg 74%
    08:00 +25°C° 0 mm 1 m/S 749 mmHg 68%
    09:00 +26°C° 0 mm 2 m/S 749 mmHg 62%
    10:00 +27°C° 0,1 mm 2 m/S 749 mmHg 59%
    11:00 +28°C° 0,1 mm 2 m/S 748 mmHg 57%
    12:00 +29°C° 0,1 mm 3 m/S 748 mmHg 55%
    13:00 +29°C° 0,2 mm 2 m/S 748 mmHg 56%
    14:00 +29°C° 0,2 mm 2 m/S 748 mmHg 57%
    15:00 +29°C° 0,2 mm 2 m/S 747 mmHg 58%
    16:00 +28°C° 0,3 mm 2 m/S 747 mmHg 63%
    17:00 +27°C° 0,3 mm 2 m/S 747 mmHg 68%
    18:00 +26°C° 0,3 mm 2 m/S 747 mmHg 73%
    19:00 +24°C° 0,8 mm 2 m/S 747 mmHg 77%
    20:00 +23°C° 0,8 mm 2 m/S 747 mmHg 80%
    21:00 +21°C° 0,8 mm 2 m/S 747 mmHg 83%
    22:00 +20°C° 0,6 mm 2 m/S 747 mmHg 85%
    23:00 +21°C° 0,6 mm 1 m/S 747 mmHg 87%

    Morgen, 29 Mai, Dienstag

    Zeit Temperatur Niederschläge Wind Luftdruck Luftfeuchtigkeit
    00:00 +20°C° 0,6 mm 1 m/S 747 mmHg 89%
    01:00 +20°C° 0,8 mm 1 m/S 747 mmHg 90%
    02:00 +20°C° 0,8 mm 1 m/S 747 mmHg 91%
    03:00 +19°C° 0,8 mm 1 m/S 746 mmHg 92%
    04:00 +20°C° 0,1 mm 1 m/S 746 mmHg 91%
    05:00 +21°C° 0,1 mm 1 m/S 746 mmHg 90%
    06:00 +22°C° 0,1 mm 1 m/S 746 mmHg 89%
    07:00 +23°C° 0,5 mm 1 m/S 746 mmHg 85%
    08:00 +24°C° 0,5 mm 1 m/S 746 mmHg 81%
    09:00 +26°C° 0,5 mm 1 m/S 746 mmHg 78%
    10:00 +26°C° 0,9 mm 1 m/S 746 mmHg 76%
    11:00 +26°C° 0,9 mm 2 m/S 746 mmHg 73%
    12:00 +26°C° 0,9 mm 2 m/S 745 mmHg 71%
    13:00 +26°C° 0,6 mm 2 m/S 745 mmHg 74%
    14:00 +26°C° 0,6 mm 2 m/S 745 mmHg 76%
    15:00 +25°C° 0,6 mm 2 m/S 744 mmHg 79%
    16:00 +25°C° 0,8 mm 2 m/S 744 mmHg 82%
    17:00 +24°C° 0,8 mm 2 m/S 744 mmHg 84%
    18:00 +24°C° 0,8 mm 1 m/S 744 mmHg 87%
    19:00 +22°C° 0,7 mm 1 m/S 744 mmHg 88%
    20:00 +21°C° 0,7 mm 1 m/S 744 mmHg 89%
    21:00 +20°C° 0,7 mm 1 m/S 744 mmHg 90%
    22:00 +19°C° 0,1 mm 1 m/S 744 mmHg 91%
    23:00 +19°C° 0,1 mm 1 m/S 744 mmHg 92%

    übermorgen, 30 Mai, Mittwoch

    Zeit Temperatur Niederschläge Wind Luftdruck Luftfeuchtigkeit
    00:00 +18°C° 0,1 mm 2 m/S 743 mmHg 92%
    01:00 +17°C° 0 mm 2 m/S 743 mmHg 93%
    02:00 +18°C° 0 mm 1 m/S 743 mmHg 93%
    03:00 +16°C° 0 mm 1 m/S 743 mmHg 94%
    04:00 +18°C° 0 mm 1 m/S 743 mmHg 93%
    05:00 +19°C° 0 mm 1 m/S 743 mmHg 91%
    06:00 +20°C° 0 mm 1 m/S 743 mmHg 90%
    07:00 +22°C° 0 mm 1 m/S 744 mmHg 83%
    08:00 +24°C° 0 mm 2 m/S 744 mmHg 76%
    09:00 +25°C° 0 mm 2 m/S 744 mmHg 69%
    10:00 +26°C° 0 mm 2 m/S 744 mmHg 65%
    11:00 +27°C° 0 mm 2 m/S 744 mmHg 61%
    12:00 +28°C° 0 mm 2 m/S 744 mmHg 57%
    13:00 +28°C° 0,7 mm 2 m/S 744 mmHg 60%
    14:00 +28°C° 0,7 mm 2 m/S 744 mmHg 64%
    15:00 +27°C° 0,7 mm 1 m/S 743 mmHg 67%
    16:00 +27°C° 0,6 mm 1 m/S 743 mmHg 71%
    17:00 +26°C° 0,6 mm 1 m/S 743 mmHg 76%
    18:00 +25°C° 0,6 mm 1 m/S 743 mmHg 80%
    19:00 +23°C° 0,2 mm 1 m/S 744 mmHg 83%
    20:00 +22°C° 0,2 mm 1 m/S 744 mmHg 86%
    21:00 +20°C° 0,2 mm 1 m/S 744 mmHg 90%
    22:00 +20°C° 0,4 mm 1 m/S 744 mmHg 91%
    23:00 +20°C° 0,4 mm 1 m/S 744 mmHg 92%

    31 Mai, Donnerstag

    Zeit Temperatur Niederschläge Wind Luftdruck Luftfeuchtigkeit
    00:00 +19°C° 0,4 mm 1 m/S 744 mmHg 93%
    01:00 +19°C° 0 mm 1 m/S 744 mmHg 93%
    02:00 +19°C° 0 mm 1 m/S 744 mmHg 93%
    03:00 +16°C° 0 mm 0 m/S 744 mmHg 94%
    04:00 +17°C° 0,3 mm 0 m/S 744 mmHg 93%
    05:00 +20°C° 0,3 mm 1 m/S 744 mmHg 92%
    06:00 +21°C° 0,3 mm 1 m/S 744 mmHg 91%
    07:00 +22°C° 1,1 mm 1 m/S 745 mmHg 87%
    08:00 +24°C° 1,1 mm 1 m/S 745 mmHg 83%
    09:00 +25°C° 1,1 mm 2 m/S 745 mmHg 79%
    10:00 +26°C° 1,2 mm 2 m/S 745 mmHg 77%
    11:00 +26°C° 1,2 mm 2 m/S 745 mmHg 74%
    12:00 +26°C° 1,2 mm 2 m/S 745 mmHg 72%
    13:00 +26°C° 1,6 mm 2 m/S 745 mmHg 74%
    14:00 +26°C° 1,6 mm 1 m/S 745 mmHg 76%
    15:00 +25°C° 1,6 mm 1 m/S 745 mmHg 79%
    16:00 +24°C° 1,1 mm 1 m/S 745 mmHg 82%
    17:00 +23°C° 1,1 mm 2 m/S 745 mmHg 85%
    18:00 +21°C° 1,1 mm 2 m/S 745 mmHg 89%
    19:00 +21°C° 0,6 mm 2 m/S 745 mmHg 90%
    20:00 +20°C° 0,6 mm 2 m/S 745 mmHg 91%
    21:00 +20°C° 0,6 mm 1 m/S 746 mmHg 92%
    22:00 +20°C° 0,9 mm 1 m/S 746 mmHg 93%
    23:00 +20°C° 0,9 mm 1 m/S 746 mmHg 93%

    1 Juni, Freitag

    Zeit Temperatur Niederschläge Wind Luftdruck Luftfeuchtigkeit
    00:00 +19°C° 0,9 mm 1 m/S 746 mmHg 94%
    01:00 +19°C° 0,2 mm 1 m/S 746 mmHg 94%
    02:00 +19°C° 0,2 mm 1 m/S 746 mmHg 94%
    03:00 +19°C° 0,2 mm 1 m/S 746 mmHg 94%
    04:00 +19°C° 0,3 mm 1 m/S 746 mmHg 94%
    05:00 +19°C° 0,3 mm 2 m/S 746 mmHg 93%
    06:00 +19°C° 0,3 mm 2 m/S 747 mmHg 92%
    07:00 +21°C° 0,4 mm 2 m/S 747 mmHg 88%
    08:00 +22°C° 0,4 mm 3 m/S 747 mmHg 84%
    09:00 +24°C° 0,4 mm 3 m/S 747 mmHg 80%
    10:00 +25°C° 0,5 mm 3 m/S 747 mmHg 75%
    11:00 +26°C° 0,5 mm 4 m/S 747 mmHg 70%
    12:00 +27°C° 0,5 mm 4 m/S 747 mmHg 65%
    13:00 +27°C° 0,3 mm 4 m/S 747 mmHg 63%
    14:00 +27°C° 0,3 mm 3 m/S 747 mmHg 62%
    15:00 +28°C° 0,3 mm 3 m/S 747 mmHg 60%
    16:00 +27°C° 0,3 mm 3 m/S 747 mmHg 64%
    17:00 +26°C° 0,3 mm 3 m/S 747 mmHg 67%
    18:00 +25°C° 0,3 mm 2 m/S 747 mmHg 71%
    19:00 +22°C° 0 mm 3 m/S 747 mmHg 73%
    20:00 +21°C° 0 mm 3 m/S 748 mmHg 75%
    21:00 +19°C° 0 mm 3 m/S 748 mmHg 77%
    22:00 +18°C° 0 mm 3 m/S 748 mmHg 78%
    23:00 +17°C° 0 mm 3 m/S 748 mmHg 80%

    2 Juni, Samstag

    Zeit Temperatur Niederschläge Wind Luftdruck Luftfeuchtigkeit
    00:00 +17°C° 0 mm 3 m/S 749 mmHg 82%
    01:00 +16°C° 0 mm 3 m/S 749 mmHg 82%
    02:00 +16°C° 0 mm 2 m/S 749 mmHg 83%
    03:00 +15°C° 0 mm 2 m/S 749 mmHg 83%
    04:00 +16°C° 0 mm 2 m/S 749 mmHg 81%
    05:00 +17°C° 0 mm 2 m/S 749 mmHg 79%
    06:00 +18°C° 0 mm 2 m/S 750 mmHg 77%
    07:00 +20°C° 0 mm 3 m/S 750 mmHg 71%
    08:00 +21°C° 0 mm 3 m/S 750 mmHg 65%
    09:00 +24°C° 0 mm 3 m/S 750 mmHg 60%
    10:00 +25°C° 0 mm 3 m/S 750 mmHg 57%
    11:00 +26°C° 0 mm 3 m/S 750 mmHg 54%
    12:00 +27°C° 0 mm 3 m/S 750 mmHg 51%
    13:00 +27°C° 0 mm 3 m/S 750 mmHg 50%
    14:00 +27°C° 0 mm 3 m/S 750 mmHg 50%
    15:00 +27°C° 0 mm 3 m/S 750 mmHg 50%
    16:00 +26°C° 0 mm 3 m/S 750 mmHg 55%
    17:00 +25°C° 0 mm 2 m/S 750 mmHg 59%
    18:00 +24°C° 0 mm 2 m/S 750 mmHg 64%
    19:00 +21°C° 0 mm 2 m/S 750 mmHg 67%
    20:00 +20°C° 0 mm 2 m/S 750 mmHg 69%
    21:00 +18°C° 0 mm 2 m/S 750 mmHg 71%
    22:00 +17°C° 0 mm 2 m/S 750 mmHg 73%
    23:00 +16°C° 0 mm 2 m/S 750 mmHg 74%
    Mehr zeigen